Powrót do katalogu

COSMOS 2251 DEB

AktywnyLEO
NORAD 33816·DEBRIS·🇷🇺 Russia

Wystrzelony Jun 16, 1993 z Plesetsk Cosmodrome

Loading…

Następne Przeloty (najbliższe 24 godziny)

TLE

ŚwieżeSource: Space-Track

Epoka: Sep 14, 2026, 05:23 UTC

1 33816U 93036BH  26257.22476146  .00000293  00000-0  22584-3 0  9994
2 33816  73.8975 358.2853 0265918 319.2168  38.9313 13.82141177884795

Śledź COSMOS 2251 DEB w czasie rzeczywistym z AllMySat

Download on the App Store